Tracking 30009 objects as of 7-Dec-2024
HD Live streaming from Space Station
objects crossing your sky now

STARLINK-4072

Track STARLINK-4072 now!
10-day predictions
STARLINK-4072 is classified as:


NORAD ID: 52694
Int'l Code: 2022-053AQ
Perigee: 545.6 km
Apogee: 548.1 km
Inclination: 53.2 °
Period: 95.4 minutes
Semi major axis: 6917 km
RCS: Unknown
Launch date: May 18, 2022
Source: United States (US)
Launch site: AIR FORCE EASTERN TEST RANGE (AFETR)
Your satellite tracking list
Your tracking list is empty




NASA's NSSDC Master Catalog

Two Line Element Set (TLE):
1 52694U 22053AQ  24341.86653286  .00001091  00000-0  86647-4 0  9992
2 52694  53.2177  39.3684 0001795  84.0026 276.1171 15.08844282141630
Source of the keplerian elements: AFSPC